Time,TemperatureF,DewpointF,PressureIn,WindDirection,WindDirectionDegrees,WindSpeedMPH,WindSpeedGustMPH,Humidity,HourlyPrecipIn,Conditions,Clouds,dailyrainin,SoftwareType,DateUTC
2013-09-01 00:14:00,67.0,66.0,29.76,SW,233,0.0,4.0,97,0.09,,,0.00,weatherlink.com 1.10,2013-09-01 04:14:00,
2013-09-01 00:29:00,67.0,66.0,29.76,SSW,197,0.0,0.0,97,0.11,,,0.02,weatherlink.com 1.10,2013-09-01 04:29:00,
2013-09-01 00:44:00,66.6,66.0,29.75,SW,227,2.0,4.0,98,0.12,,,0.03,weatherlink.com 1.10,2013-09-01 04:44:00,
2013-09-01 00:59:00,66.9,66.0,29.76,SW,218,4.0,7.0,98,0.03,,,0.03,weatherlink.com 1.10,2013-09-01 04:59:00,
2013-09-01 01:14:00,67.1,67.0,29.76,SW,232,5.0,6.0,98,0.03,,,0.03,weatherlink.com 1.10,2013-09-01 05:14:00,
2013-09-01 01:29:00,66.8,66.0,29.75,SW,219,2.0,7.0,97,0.01,,,0.03,weatherlink.com 1.10,2013-09-01 05:29:00,
2013-09-01 01:44:00,66.5,66.0,29.75,SSW,212,3.0,4.0,98,0.00,,,0.03,weatherlink.com 1.10,2013-09-01 05:44:00,
2013-09-01 01:59:00,66.5,66.0,29.75,SW,231,4.0,4.0,98,0.00,,,0.03,weatherlink.com 1.10,2013-09-01 05:59:00,
2013-09-01 02:14:00,66.5,66.0,29.75,SW,229,0.0,4.0,98,0.00,,,0.03,weatherlink.com 1.10,2013-09-01 06:14:00,
2013-09-01 02:29:00,66.6,66.0,29.74,South,191,0.0,1.0,98,0.00,,,0.03,weatherlink.com 1.10,2013-09-01 06:29:00,
2013-09-01 02:44:00,66.8,66.0,29.74,SW,219,1.0,1.0,98,0.00,,,0.03,weatherlink.com 1.10,2013-09-01 06:44:00,
2013-09-01 02:59:00,67.3,67.0,29.74,SSW,205,0.0,1.0,98,0.00,,,0.03,weatherlink.com 1.10,2013-09-01 06:59:00,
2013-09-01 03:14:00,67.9,68.0,29.74,SW,221,0.0,2.0,99,0.00,,,0.03,weatherlink.com 1.10,2013-09-01 07:14:00,
2013-09-01 03:29:00,68.0,68.0,29.74,SSW,207,0.0,1.0,98,0.00,,,0.03,weatherlink.com 1.10,2013-09-01 07:29:00,
2013-09-01 03:44:00,68.1,68.0,29.74,SW,233,0.0,2.0,98,0.00,,,0.03,weatherlink.com 1.10,2013-09-01 07:44:00,
2013-09-01 03:59:00,67.8,67.0,29.74,SW,233,0.0,0.0,98,0.00,,,0.03,weatherlink.com 1.10,2013-09-01 07:59:00,
2013-09-01 04:14:00,67.4,67.0,29.73,SW,231,0.0,1.0,98,0.00,,,0.03,weatherlink.com 1.10,2013-09-01 08:14:00,
2013-09-01 04:29:00,67.1,67.0,29.75,SW,224,1.0,2.0,98,0.00,,,0.03,weatherlink.com 1.10,2013-09-01 08:29:00,
2013-09-01 04:44:00,66.5,66.0,29.74,SW,225,0.0,3.0,98,0.00,,,0.03,weatherlink.com 1.10,2013-09-01 08:44:00,
2013-09-01 04:59:00,66.1,66.0,29.74,SW,226,0.0,2.0,98,0.00,,,0.03,weatherlink.com 1.10,2013-09-01 08:59:00,
2013-09-01 05:14:00,66.1,66.0,29.75,SW,234,3.0,4.0,98,0.00,,,0.03,weatherlink.com 1.10,2013-09-01 09:14:00,
2013-09-01 05:29:00,66.0,66.0,29.75,SW,222,5.0,5.0,99,0.00,,,0.03,weatherlink.com 1.10,2013-09-01 09:29:00,
2013-09-01 05:44:00,66.1,66.0,29.76,SW,227,0.0,4.0,98,0.00,,,0.03,weatherlink.com 1.10,2013-09-01 09:44:00,
2013-09-01 05:59:00,66.2,66.0,29.76,SW,228,0.0,2.0,99,0.00,,,0.03,weatherlink.com 1.10,2013-09-01 09:59:00,
2013-09-01 06:14:00,66.2,66.0,29.76,SW,225,0.0,0.0,99,0.00,,,0.03,weatherlink.com 1.10,2013-09-01 10:14:00,
2013-09-01 06:29:00,66.6,66.0,29.77,SW,222,0.0,0.0,99,0.00,,,0.03,weatherlink.com 1.10,2013-09-01 10:29:00,
2013-09-01 06:44:00,66.6,66.0,29.78,SW,222,0.0,0.0,99,0.00,,,0.03,weatherlink.com 1.10,2013-09-01 10:44:00,
2013-09-01 06:59:00,66.6,66.0,29.78,SW,222,0.0,0.0,99,0.00,,,0.03,weatherlink.com 1.10,2013-09-01 10:59:00,
2013-09-01 07:14:00,66.1,66.0,29.78,SSE,156,0.0,1.0,98,0.00,,,0.03,weatherlink.com 1.10,2013-09-01 11:14:00,
2013-09-01 07:29:00,66.6,66.0,29.78,SSE,156,0.0,1.0,99,0.00,,,0.03,weatherlink.com 1.10,2013-09-01 11:29:00,
2013-09-01 07:44:00,67.6,67.0,29.79,ENE,72,0.0,2.0,99,0.00,,,0.03,weatherlink.com 1.10,2013-09-01 11:44:00,
2013-09-01 07:59:00,67.5,67.0,29.79,SSW,203,0.0,2.0,99,0.00,,,0.03,weatherlink.com 1.10,2013-09-01 11:59:00,
2013-09-01 08:14:00,67.4,67.0,29.80,West,276,1.0,4.0,99,0.00,,,0.03,weatherlink.com 1.10,2013-09-01 12:14:00,
2013-09-01 08:29:00,66.8,66.0,29.80,SW,217,0.0,2.0,98,0.00,,,0.03,weatherlink.com 1.10,2013-09-01 12:29:00,
2013-09-01 08:44:00,66.5,66.0,29.81,WSW,248,0.0,3.0,99,0.00,,,0.03,weatherlink.com 1.10,2013-09-01 12:44:00,
2013-09-01 08:59:00,67.1,67.0,29.81,SW,214,0.0,1.0,99,0.00,,,0.03,weatherlink.com 1.10,2013-09-01 12:59:00,
2013-09-01 09:14:00,67.9,68.0,29.81,SSE,159,1.0,1.0,99,0.00,,,0.03,weatherlink.com 1.10,2013-09-01 13:14:00,
2013-09-01 09:29:00,68.2,68.0,29.81,SSE,159,0.0,2.0,99,0.00,,,0.03,weatherlink.com 1.10,2013-09-01 13:29:00,
2013-09-01 09:44:00,69.1,69.0,29.81,SSE,159,1.0,1.0,99,0.00,,,0.03,weatherlink.com 1.10,2013-09-01 13:44:00,
2013-09-01 09:59:00,69.1,69.0,29.81,WSW,248,3.0,3.0,98,0.00,,,0.03,weatherlink.com 1.10,2013-09-01 13:59:00,
2013-09-01 10:14:00,69.7,69.0,29.82,WSW,243,0.0,3.0,99,0.00,,,0.03,weatherlink.com 1.10,2013-09-01 14:14:00,
2013-09-01 10:30:00,71.2,71.0,29.82,SSW,203,1.0,2.0,99,0.00,,,0.03,weatherlink.com 1.10,2013-09-01 14:30:00,
2013-09-01 10:45:00,71.9,71.0,29.82,SSW,204,2.0,2.0,98,0.00,,,0.03,weatherlink.com 1.10,2013-09-01 14:45:00,
2013-09-01 11:00:00,72.4,72.0,29.82,SW,223,2.0,4.0,97,0.00,,,0.03,weatherlink.com 1.10,2013-09-01 15:00:00,
2013-09-01 11:15:00,73.7,73.0,29.82,ENE,60,2.0,2.0,97,0.00,,,0.03,weatherlink.com 1.10,2013-09-01 15:15:00,
2013-09-01 11:30:00,74.5,73.0,29.82,ENE,64,1.0,3.0,95,0.00,,,0.03,weatherlink.com 1.10,2013-09-01 15:30:00,
2013-09-01 11:45:00,75.8,72.0,29.83,ENE,77,0.0,2.0,88,0.00,,,0.03,weatherlink.com 1.10,2013-09-01 15:45:00,
2013-09-01 12:00:00,75.0,71.0,29.83,WSW,256,2.0,2.0,87,0.00,,,0.03,weatherlink.com 1.10,2013-09-01 16:00:00,
2013-09-01 12:15:00,74.2,70.0,29.83,West,264,2.0,4.0,87,0.00,,,0.03,weatherlink.com 1.10,2013-09-01 16:15:00,
2013-09-01 12:30:00,75.0,71.0,29.83,West,264,2.0,3.0,88,0.00,,,0.03,weatherlink.com 1.10,2013-09-01 16:30:00,
2013-09-01 12:45:00,74.5,71.0,29.83,WSW,256,2.0,3.0,88,0.00,,,0.03,weatherlink.com 1.10,2013-09-01 16:45:00,
2013-09-01 13:00:00,76.1,72.0,29.83,WSW,253,2.0,3.0,86,0.00,,,0.03,weatherlink.com 1.10,2013-09-01 17:00:00,
2013-09-01 13:15:00,76.7,72.0,29.83,West,264,2.0,3.0,84,0.00,,,0.03,weatherlink.com 1.10,2013-09-01 17:15:00,
2013-09-01 13:30:00,72.1,69.0,29.83,WSW,252,7.0,9.0,89,0.00,,,0.03,weatherlink.com 1.10,2013-09-01 17:30:00,
2013-09-01 13:45:00,70.1,68.0,29.84,West,271,5.0,11.0,93,0.00,,,0.03,weatherlink.com 1.10,2013-09-01 17:45:00,
2013-09-01 14:00:00,71.0,69.0,29.84,West,270,5.0,8.0,93,0.00,,,0.03,weatherlink.com 1.10,2013-09-01 18:00:00,
2013-09-01 14:15:00,70.0,68.0,29.84,West,266,6.0,7.0,93,0.00,,,0.03,weatherlink.com 1.10,2013-09-01 18:15:00,
2013-09-01 14:30:00,69.5,68.0,29.83,WSW,257,9.0,10.0,94,0.00,,,0.03,weatherlink.com 1.10,2013-09-01 18:30:00,
2013-09-01 14:45:00,69.9,68.0,29.83,West,267,6.0,9.0,94,0.00,,,0.03,weatherlink.com 1.10,2013-09-01 18:45:00,
2013-09-01 15:00:00,69.5,68.0,29.83,West,269,4.0,9.0,95,0.00,,,0.03,weatherlink.com 1.10,2013-09-01 19:00:00,
2013-09-01 15:15:00,69.4,68.0,29.83,West,264,4.0,8.0,95,0.00,,,0.03,weatherlink.com 1.10,2013-09-01 19:15:00,
2013-09-01 15:30:00,69.9,69.0,29.83,West,271,2.0,7.0,95,0.00,,,0.03,weatherlink.com 1.10,2013-09-01 19:30:00,
2013-09-01 15:45:00,70.6,69.0,29.84,West,266,4.0,7.0,94,0.00,,,0.03,weatherlink.com 1.10,2013-09-01 19:45:00,
2013-09-01 16:00:00,70.7,69.0,29.85,West,273,5.0,7.0,93,0.00,,,0.03,weatherlink.com 1.10,2013-09-01 20:00:00,
2013-09-01 16:15:00,70.3,69.0,29.85,West,276,4.0,7.0,94,0.00,,,0.03,weatherlink.com 1.10,2013-09-01 20:15:00,
2013-09-01 16:30:00,70.2,69.0,29.84,West,267,4.0,7.0,94,0.00,,,0.03,weatherlink.com 1.10,2013-09-01 20:30:00,
2013-09-01 16:45:00,70.5,68.0,29.85,West,262,5.0,7.0,93,0.00,,,0.03,weatherlink.com 1.10,2013-09-01 20:45:00,
2013-09-01 17:00:00,70.9,69.0,29.85,West,269,2.0,4.0,93,0.00,,,0.03,weatherlink.com 1.10,2013-09-01 21:00:00,
2013-09-01 17:15:00,70.9,69.0,29.85,WSW,256,3.0,5.0,93,0.00,,,0.03,weatherlink.com 1.10,2013-09-01 21:15:00,
2013-09-01 17:30:00,71.0,69.0,29.86,West,264,0.0,2.0,94,0.00,,,0.03,weatherlink.com 1.10,2013-09-01 21:30:00,
2013-09-01 17:45:00,71.1,69.0,29.86,West,267,2.0,2.0,93,0.00,,,0.03,weatherlink.com 1.10,2013-09-01 21:45:00,
2013-09-01 18:00:00,71.6,69.0,29.86,West,269,2.0,2.0,92,0.00,,,0.03,weatherlink.com 1.10,2013-09-01 22:00:00,
2013-09-01 18:15:00,71.9,69.0,29.86,West,269,0.0,3.0,91,0.00,,,0.03,weatherlink.com 1.10,2013-09-01 22:15:00,
2013-09-01 18:30:00,72.4,69.0,29.86,West,269,3.0,4.0,90,0.00,,,0.03,weatherlink.com 1.10,2013-09-01 22:30:00,
2013-09-01 18:45:00,70.3,68.0,29.87,WSW,255,2.0,4.0,91,0.00,,,0.03,weatherlink.com 1.10,2013-09-01 22:45:00,
2013-09-01 19:00:00,69.8,68.0,29.87,West,266,2.0,4.0,94,0.00,,,0.03,weatherlink.com 1.10,2013-09-01 23:00:00,
2013-09-01 19:15:00,69.5,68.0,29.88,West,269,0.0,1.0,94,0.00,,,0.03,weatherlink.com 1.10,2013-09-01 23:15:00,
2013-09-01 19:30:00,69.1,67.0,29.88,South,190,2.0,3.0,94,0.00,,,0.03,weatherlink.com 1.10,2013-09-01 23:30:00,
2013-09-01 19:45:00,68.8,67.0,29.88,West,266,0.0,2.0,95,0.00,,,0.03,weatherlink.com 1.10,2013-09-01 23:45:00,
2013-09-01 20:00:00,68.7,67.0,29.88,West,266,0.0,0.0,95,0.00,,,0.03,weatherlink.com 1.10,2013-09-02 00:00:00,
2013-09-01 20:15:00,68.2,67.0,29.89,SSW,212,0.0,4.0,96,0.00,,,0.03,weatherlink.com 1.10,2013-09-02 00:15:00,
2013-09-01 20:30:00,68.2,67.0,29.90,WSW,249,0.0,3.0,96,0.00,,,0.03,weatherlink.com 1.10,2013-09-02 00:30:00,
2013-09-01 20:45:00,68.4,67.0,29.89,SE,127,0.0,0.0,96,0.00,,,0.03,weatherlink.com 1.10,2013-09-02 00:45:00,
2013-09-01 21:00:00,68.5,67.0,29.89,East,98,0.0,0.0,96,0.00,,,0.03,weatherlink.com 1.10,2013-09-02 01:00:00,
2013-09-01 21:16:00,68.5,67.0,29.89,East,80,1.0,1.0,96,0.00,,,0.03,weatherlink.com 1.10,2013-09-02 01:16:00,
2013-09-01 21:31:00,68.4,67.0,29.88,East,82,0.0,0.0,96,0.00,,,0.03,weatherlink.com 1.10,2013-09-02 01:31:00,
2013-09-01 21:46:00,68.4,67.0,29.88,SE,127,0.0,2.0,96,0.00,,,0.03,weatherlink.com 1.10,2013-09-02 01:46:00,
2013-09-01 22:01:00,68.2,67.0,29.89,East,87,0.0,1.0,96,0.00,,,0.03,weatherlink.com 1.10,2013-09-02 02:01:00,
2013-09-01 22:16:00,68.0,67.0,29.88,SE,132,1.0,2.0,97,0.00,,,0.03,weatherlink.com 1.10,2013-09-02 02:16:00,
2013-09-01 22:31:00,68.0,67.0,29.88,East,90,0.0,3.0,97,0.00,,,0.03,weatherlink.com 1.10,2013-09-02 02:31:00,
2013-09-01 22:46:00,67.9,67.0,29.89,ESE,112,0.0,1.0,97,0.00,,,0.03,weatherlink.com 1.10,2013-09-02 02:46:00,
2013-09-01 23:01:00,67.8,67.0,29.90,East,97,1.0,1.0,97,0.00,,,0.03,weatherlink.com 1.10,2013-09-02 03:01:00,
2013-09-01 23:16:00,67.6,67.0,29.89,ESE,106,0.0,3.0,97,0.00,,,0.03,weatherlink.com 1.10,2013-09-02 03:16:00,
2013-09-01 23:31:00,67.5,67.0,29.89,SE,127,0.0,4.0,97,0.00,,,0.03,weatherlink.com 1.10,2013-09-02 03:31:00,
2013-09-01 23:46:00,67.3,67.0,29.89,SE,126,1.0,5.0,97,0.00,,,0.03,weatherlink.com 1.10,2013-09-02 03:46:00,